CZ-2D DEB (57571 NORAD) Tracking and Keplerian Element Data

This shows tracking and keplerian element data for the satellite.

Feedback or suggestion? Click here.




ElementValue
Catalog57571
NameCZ-2D DEB
Epoch Orbit3
Epoch Day221.55018442
Epoch Year2023
RAAN227.8164
Inclination97.1929
Eccentricity0.0109287
Argument of Perigee221.1309
Mean Anonmoly262.4843
Mean Motion15.08662629
Decay Rate-7E-07
L11 57571U 23116D 23221.55018442 -.00000070 00000+0 00000+0 0 9993
L22 57571 97.1929 227.8164 0109287 221.1309 262.4843 15.08662629 36



Live tracking and technical data element details for CZ-2D DEB (NORAD 57571). CZ-2D DEB can be tracked NOW for your location showing map with azimuth and elevation plus other details from your city location.







IsCatalogInMostPopularTable: catalog: 57571, numindb: 5
Update: records affected: 1



GetName: 57571 CZ-2D DEB

Hit Count: updated at: Tue, 26 Sep 2023 13:03:14 GMT